map of WMH home
Great Circle Mapper logo
WMH - Airport
Location
City:  Mountain Home, Arkansas, United States
Name:Baxter County Airport
ICAO / IATA:KBPK / WMH
FAA:BPK

Details
Type:Airport (Airfield)
Use:Public/Civil
Latitude:3622'08"N (36.368942)
Longitude:9228'14"W (-92.470527)
Datum:WGS 1984
Elevation:928 ft (283 m)
Variation:0.56E (WMM2015 magnetic declination)
-0.10 annual change
Runways:1
Longest:5001 × 75 ft (1524 × 23 m), paved

Time
Time Zone:UTC-6 (DST-5)
Local Time:

Weather
METAR:KBPK 230153Z AUTO 14005KT 10SM FEW110 16/09 A3022 RMK AO2 SLP229 T01560094
TAF:KBPK 222320Z 2300/2324 10005KT P6SM VCSH BKN050 OVC100
FM231400 15008KT P6SM SCT050 BKN100

Related Locations
Nearby:
Farthest:MGV: 10879 mi / 17508 km
Margaret River, WA, AU

Find:

   beyond  
but within

Other Information
Maps:
NOTAMs:
Links:
Sources:

  
flag of United States
flag of Arkansas
  

Sectional Chart

Flight Planning
at skyvector.com

Satellite Image

Google Maps Satellite View

 

Copyright © 2004-2015 Karl L. Swartz. All rights reserved.
The Great Circle Mapper name and logo are trademarks of the Great Circle Mapper.
All other trademarks mentioned herein belong to their respective owners.
Please see credits for attibutions and further copyright information.

  Follow gcmap on Facebook Follow gcmap on Twitter Follow gcmap on Google+

hCard Microformat

Geo Microformat